Regional Weather Roundup
Issued by NWS

Home | Current Version | Previous Version | Text Only | Print | Product List | Glossary On
Versions: 1 2 3 4 5 6 7 8 9 10 11 12 13 14 15 16 17 18 19 20 21 22 23 24 25 26 27 28 29 30 31 32 33 34 35 36 37 38 39 40 41 42 43 44 45 46 47 48 49 50
000
ASUS43 KMKX 252111
RWRWI

WISCONSIN REGIONAL WEATHER ROUNDUP
NATIONAL WEATHER SERVICE MILWAUKEE/SULLIVAN WI
400 PM CDT FRI JUL 25 2014

NOTE: "FAIR" INDICATES FEW OR NO CLOUDS BELOW 12,000 FEET WITH NO
SIGNIFICANT WEATHER AND/OR OBSTRUCTIONS TO VISIBILITY.

WIZ001-002-006>008-014>016-023>028-252200-
NORTHWEST WISCONSIN

CITY           SKY/WX    TMP DP  RH WIND       PRES   REMARKS
SUPERIOR ARPT  CLOUDY    64  59  83 E3        29.79S
ASHLAND        CLOUDY    71  64  78 SW8       29.82R
HAYWARD        CLOUDY    70  64  81 S13       29.83S
SIREN          CLOUDY    74  65  74 S7        29.80S
RICE LAKE      CLOUDY    70  64  80 SE8       29.84F
LADYSMITH      CLOUDY    69  64  82 S8        29.87F
EAU CLAIRE     CLOUDY    74  65  73 S8        29.83F
MENOMONIE      CLOUDY    75  67  76 SE8       29.83S
NEW RICHMOND   CLOUDY    76  66  72 S8        29.81F
OSCEOLA        CLOUDY    76  69  79 S8        29.82F
$$

WIZ003>005-009-010-017-018-252200-
NORTH CENTRAL WISCONSIN

CITY           SKY/WX    TMP DP  RH WIND       PRES   REMARKS
WOODRUFF       CLOUDY    73  63  71 S8        29.85F
RHINELANDER    CLOUDY    67  61  81 SW12      29.88F
EAGLE RIVER    CLOUDY    69  60  71 S5        29.86F
LAND O LAKES   CLOUDY    70  61  72 S5        29.86F
PHILLIPS       CLOUDY    68  63  83 S7        29.86S
TOMAHAWK       CLOUDY    66  61  82 CALM      29.89S
MEDFORD        CLOUDY    65  61  89 S9        29.89S
MERRILL        CLOUDY    66  62  86 SW8       29.89S
$$

WIZ029-030-035-036-043>047-252200-
CENTRAL WISCONSIN

CITY           SKY/WX    TMP DP  RH WIND       PRES   REMARKS
WAUSAU         CLOUDY    67  61  81 SW8       29.88S
MOSINEE        CLOUDY    66  63  88 SW12      29.91S
MARSHFIELD     CLOUDY    68  62  81 S7        29.89S
STEVENS POINT  CLOUDY    67  59  76 SW9       29.90S
WAUPACA        CLOUDY    73  60  64 SW10      29.90S
WAUTOMA        CLOUDY    70  61  73 SW9       29.92S
WISC RAPIDS    CLOUDY    68  61  78 S9        29.91S
CAMP DOUGLAS   CLOUDY    70  64  83 S5        29.90S
$$

WIZ011>013-019>022-031-037>040-048>050-252200-
NORTHEAST WISCONSIN

CITY           SKY/WX    TMP DP  RH WIND       PRES   REMARKS
ANTIGO         CLOUDY    66  61  84 S12       29.90F
STURGEON BAY   CLOUDY    70  57  64 S10       29.90F
GREEN BAY      CLOUDY    72  59  63 S10       29.89F
MANITOWOC      MOSUNNY   73  56  54 SW14      29.92S
APPLETON       PTSUNNY   72  59  64 SW15      29.91F
CLINTONVILLE   CLOUDY    70  59  68 SW10      29.89S
OSHKOSH        CLOUDY    72  60  66 S15G22    29.90F
$$

WIZ032>034-041-042-053>061-252200-
SOUTHWEST WISCONSIN

CITY           SKY/WX    TMP DP  RH WIND       PRES   REMARKS
LA CROSSE      CLOUDY    76  64  66 S10       29.86S
SPARTA         CLOUDY    71  61  70 S7        29.89S
VIROQUA        CLOUDY    71  63  74 SW7       29.90S
BOSCOBEL       CLOUDY    73  62  68 VRB5      29.89F
PRAIRIE DU CHI CLOUDY    73  63  68 E6        29.86F
PLATTEVILLE    CLOUDY    69  63  81 SE7       29.91F
$$

WIZ056-057-062-063-064-067-068-252200-
SOUTH CENTRAL WISCONSIN

CITY           SKY/WX    TMP DP  RH WIND       PRES   REMARKS
BARABOO/DELLS  CLOUDY    69  59  68 S5        29.92S
LONE ROCK      CLOUDY    74  62  66 S3        29.90F
WATERTOWN      CLOUDY    71  60  67 SW8       29.93S
MADISON        CLOUDY    71  60  68 VRB3      29.93R
MIDDLETON      CLOUDY    71  59  66 SW9       29.93R
MONROE         CLOUDY    68  61  77 SE8       29.93S
JANESVILLE     CLOUDY    72  57  60 S12       29.93F
$$

WIZ051-052-058>065-066-070>072-252200-
SOUTHEAST WISCONSIN

CITY           SKY/WX    TMP DP  RH WIND       PRES   REMARKS
MILWAUKEE      CLOUDY    70  56  61 SW7       29.94F
WAUKESHA       MOSUNNY   70  57  64 S8        29.95R
MILWAUKEE/TIMM PTSUNNY   70  55  60 S7        29.95S
RACINE         CLOUDY    72  56  57 SW7       29.96S
BURLINGTON     CLOUDY    69  59  71 S9        29.94S
KENOSHA        CLOUDY    73  59  61 SW10      29.95S
FOND DU LAC    PTSUNNY   72  58  61 S14G23    29.92F
SHEBOYGAN      MOSUNNY   72  60  66 S13       29.93F
WEST BEND      PTSUNNY   72  57  60 S13       29.94F
JUNEAU         PTSUNNY   71  58  63 S12       29.94F
$$

LSZ147-162-252200-
LAKE SUPERIOR

STATION/POSITION TIME  TEMP    WIND        PRES    WAVE
                       AIR SEA DIR/SP/G            HT/PER
                 (UTC) (F)     (DEG/KT/KT) (MB)    (FT/S)
W MID LAKE BUOY  2050   60 50  190/  8/  8 1008.5F   1
PORT WING        2000   65      50/  3/  4 1009.5S
SAXON HARBOR     2000             CALM     1009.1
$$

LMZ867-665-643>646-252200-
LAKE MICHIGAN

STATION/POSITION TIME  TEMP    WIND        PRES    WAVE
                       AIR SEA DIR/SP/G            HT/PER
                 (UTC) (F)     (DEG/KT/KT) (MB)    (FT/S)
N MID LAKE BUOY  2050   59 56  190/ 14/ 16 1011.8F   3/ 5
NORTHPORT PIER   2000   65     150/  5/  9 1012.2F
KEWAUNEE LAKESHO 2000   56     180/  8/ 10 1013.8S
SHEBOYGAN LAKESH 2100   67     170/  8/  9 1013.6F
PORT WASHINGTON  2040   67     160/  2/  2 1014.6R
ATWATER BUOY     2100   67     180/  8     1014.9R
MILWAUKEE LAKESH 2000   69     200/ 12/ 14   N/A
S MID LAKE BUOY  2050   64 62  160/ 10/ 10 1014.6F   1/ 3
KENOSHA   LAKESH 2100   73     220/  9/ 12 1013.5S
$$

TC  - TEMPERATURE IN CELSIUS
VSB - VISIBILITY IN STATUTE MILES
WCI - WIND CHILL INDEX
HX  - HEAT INDEX



USA.gov is the U.S. government's official web portal to all federal, state and local government web resources and services.